Regional Weather Roundup
Issued by NWS

Home | Current Version | Previous Version | Text Only | Print | Product List | Glossary Off
Versions: 1 2 3 4 5 6 7 8 9 10 11 12 13 14 15 16 17 18 19 20 21 22 23 24 25 26 27 28 29 30 31 32 33 34 35 36 37 38 39 40 41 42 43 44 45 46 47 48 49 50

195
ASUS43 KFSD 200402
RWRSD

WEATHER ROUNDUP FOR SOUTH DAKOTA
NATIONAL WEATHER SERVICE SIOUX FALLS SD
1000 PM CST THU JAN 19 2017

NOTE: "FAIR" INDICATES FEW OR NO CLOUDS BELOW 12,000 FEET WITH NO
SIGNIFICANT WEATHER AND/OR OBSTRUCTIONS TO VISIBILITY.


SDZ001>005-009-010-012>017-200500-
NORTHWEST AND NORTH CENTRAL SOUTH DAKOTA

CITY           SKY/WX    TMP DP  RH WIND       PRES   REMARKS
BUFFALO          N/A     30  19  63 W9        29.37F WCI  22
FAITH            N/A     21  19  92 N6        29.42F WCI  13
MOBRIDGE       FOG       24  20  84 NW3       29.44F VSB 1/4
$$

SDZ012>016-024>037-041>051-057-063-072>074-200500-
SOUTHWEST AND SOUTH CENTRAL SOUTH DAKOTA

CITY           SKY/WX    TMP DP  RH WIND       PRES   REMARKS
RAPID CTY ARPT CLOUDY    28  19  69 W6        29.43F WCI  22
PIERRE         FOG       21  20  96 CALM      29.45F VSB 1/4
CUSTER         CLOUDY    30  19  63 W6        29.46F WCI  24
ELLSWORTH AFB  CLOUDY    30  19  64 W5        29.43F WCI  25
PHILIP         CLOUDY    17  15  92 W8        29.45F WCI   7
PINE RIDGE     CLOUDY    25  23  92 NW3       29.46F
SPEARFISH      FAIR      34  23  64 W8        29.45F WCI  27
WINNER         FAIR      37  34  89 S14       29.46F
$$

SDZ004>011-016>023-039-040-200500-
NORTHEAST SOUTH DAKOTA

CITY           SKY/WX    TMP DP  RH WIND       PRES   REMARKS
ABERDEEN       CLOUDY    34  32  92 S10       29.52F FOG     WCI  26
WATERTOWN      FOG       35  35 100 SE17      29.55S VSB 3/4 WCI  25
BROOKINGS      MIX PCPN  35  35 100 SE13      29.57F VSB 1   WCI  26
SISSETON         N/A     35  35 100 S10       29.57F WCI  27
$$

SDZ017-020-022-023-036>040-048>070-200500-
SOUTHEAST SOUTH DAKOTA

CITY           SKY/WX    TMP DP  RH WIND       PRES   REMARKS
SIOUX FALLS    DRZL/FOG  38  38 100 SE12      29.60S VSB 3/4
HURON          CLOUDY    37  37 100 SE10      29.52F
CHAMBERLAIN    CLOUDY    39  38  97 S6        29.48S
MITCHELL       CLOUDY    39  39 100 S14       29.54F
YANKTON        CLOUDY    39  36  87 SE9       29.58S
$$

ABBREVIATIONS USED IN REMARKS
   TC - TEMPERATURE IN CELSIUS
  WCI - WIND CHILL INDEX
   HX - HEAT INDEX
  VSB - VISIBILITY





USA.gov is the U.S. government's official web portal to all federal, state and local government web resources and services.